Date,TemperatureHighF,TemperatureAvgF,TemperatureLowF,DewpointHighF,DewpointAvgF,DewpointLowF,HumidityHigh,HumidityAvg,HumidityLow,PressureMaxIn,PressureMinIn,WindSpeedMaxMPH,WindSpeedAvgMPH,GustSpeedMaxMPH,PrecipitationSumIn
2013-2-1,68,54,42,44,40,35,87,64,36,30.38,30.23,3,0,7,0.00
2013-2-2,73,58,47,54,49,43,88,73,47,30.28,30.16,11,0,13,0.00
2013-2-3,70,52,37,46,39,31,91,67,25,30.32,30.08,4,0,6,0.00
2013-2-4,62,54,45,59,50,41,90,88,86,30.08,29.87,2,0,4,0.05
2013-2-5,74,62,55,64,56,52,89,83,61,30.03,29.90,3,0,8,0.01
2013-2-6,64,60,56,61,57,53,92,89,86,30.08,29.93,1,0,8,0.05
2013-2-7,66,59,54,59,55,51,90,86,78,29.99,29.90,2,0,4,0.00
2013-2-8,61,56,46,54,51,44,91,82,69,30.19,29.97,10,1,14,0.00
2013-2-9,63,54,45,60,50,42,91,86,75,30.18,29.92,5,0,8,0.00
2013-2-10,68,63,56,65,59,53,91,85,63,29.99,29.78,7,0,16,0.86
2013-2-11,58,53,51,55,50,48,91,88,74,30.13,30.00,4,0,9,0.21
2013-2-12,55,53,50,53,50,46,91,89,84,30.04,29.82,7,1,14,1.04
2013-2-13,56,47,36,46,40,33,91,78,57,30.12,29.93,10,2,17,0.00
2013-2-14,64,46,32,50,37,30,91,77,36,30.15,30.06,3,0,6,0.01
2013-2-15,62,46,35,42,37,29,91,71,41,30.32,30.11,16,2,17,0.00
2013-2-16,56,43,30,35,28,22,88,59,30,30.41,30.24,13,2,19,0.00
2013-2-17,71,52,33,47,39,31,91,65,32,30.25,30.07,6,0,10,0.00
2013-2-18,69,60,54,62,54,43,91,81,65,30.07,29.84,16,1,23,0.28
2013-2-19,65,50,37,45,36,26,91,65,24,30.28,30.07,6,1,10,0.00
2013-2-20,55,52,46,42,36,30,83,56,42,30.20,29.88,4,0,14,0.00
2013-2-21,72,59,47,65,52,40,90,77,47,29.88,29.64,7,1,21,0.43
2013-2-22,55,50,45,47,45,42,91,84,73,30.04,29.87,6,1,9,0.00
2013-2-23,68,52,40,48,43,37,89,74,39,30.03,29.91,4,0,9,0.00
2013-2-24,70,54,37,50,44,35,91,71,40,29.98,29.70,6,0,8,0.00
2013-2-25,73,60,46,63,46,28,90,64,24,29.70,29.44,18,2,18,0.02
2013-2-26,60,50,42,41,35,32,87,60,41,29.93,29.65,14,3,25,0.00
2013-2-27,65,50,36,47,35,27,91,62,31,30.14,29.91,17,2,18,0.00
2013-2-28,58,45,36,36,30,26,81,57,31,30.26,30.12,11,2,19,0.00